Regional Weather Roundup
Issued by NWS

Home | Current Version | Previous Version | Text Only | Print | Product List | Glossary Off
Versions: 1 2 3 4 5 6 7 8 9 10 11 12 13 14 15 16 17 18 19 20 21 22 23 24 25 26 27 28 29 30 31 32 33 34 35 36 37 38 39 40 41 42 43 44 45 46 47 48 49 50

000
ASUS45 KPSR 261300
RWRAZ

PRELIMINARY ARIZONA REGIONAL HOURLY WEATHER ROUNDUP
NATIONAL WEATHER SERVICE PHOENIX AZ
600 AM MST MON JAN 26 2015

NOTE: FAIR INDICATES FEW OR NO CLOUDS BELOW 12,000 FEET WITH NO
SIGNIFICANT WEATHER AND/OR OBSTRUCTIONS TO VISIBILITY.

AZZ001>003-036-261400-
NORTHWEST ARIZONA

CITY           SKY/WX    TMP DP  RH WIND       PRES   REMARKS
KINGMAN        CLOUDY    41  25  53 SE8       30.19R
$$

AZZ004>008-015-016-018-261400-
NORTH CENTRAL ARIZONA

CITY           SKY/WX    TMP DP  RH WIND       PRES   REMARKS
GRAND CANYON   PTCLDY    26  19  74 SE6       30.30F WCI  19
PRESCOTT       CLOUDY    35  22  58 SW3       30.25S
FLAGSTAFF      NOT AVBL
PAYSON         CLOUDY    46  23  39 E6        30.26S
$$

AZZ009>014-017-261400-
NORTHEAST ARIZONA

CITY           SKY/WX    TMP DP  RH WIND       PRES   REMARKS
WINSLOW        NOT AVBL
SAINT JOHNS    PTCLDY    23  19  85 CALM      30.32S
WINDOW ROCK    CLEAR     24  20  84 CALM      30.35F
$$

AZZ023-261400-
GREATER PHOENIX AREA

CITY           SKY/WX    TMP DP  RH WIND       PRES   REMARKS
PHOENIX        CLOUDY    57  29  34 CALM      30.07S
GLENDALE       MOCLDY    52  32  46 NW5       30.09
LUKE AFB       NOT AVBL
DEER VALLEY    CLOUDY    55  26  32 CALM      30.08S
SCOTTSDALE     CLOUDY    51  31  46 CALM      30.10R
MESA-FALCON    MOCLDY    57  27  30 N12       30.08
MESA-GATEWAY   PTCLDY    45  28  53 CALM      30.10S
$$

AZZ027-028-261400-
SOUTHWEST MARICOPA COUNTY AND PINAL COUNTY

CITY           SKY/WX    TMP DP  RH WIND       PRES   REMARKS
CASA GRANDE    CLOUDY    48  25  40 CALM      30.09R
GILA BEND      FAIR      52  24  33 S3        30.05S
$$

AZZ503-504-507>509-261400-
SOUTHEAST ARIZONA

CITY           SKY/WX    TMP DP  RH WIND       PRES   REMARKS
TUCSON         MOCLDY    50  28  42 W5        30.12F
DAVIS-MONTHAN  MOCLDY    58  23  25 SE14      30.11S
NOGALES        CLOUDY    52  28  39 NE7       30.15S
SIERRA VISTA   MOCLDY    46  21  36 CALM      30.20S
SAFFORD        CLOUDY    47  22  37 E18       30.23R
$$

AZZ020-021-025-026-031-261400-
SOUTHWEST ARIZONA

CITY           SKY/WX    TMP DP  RH WIND       PRES   REMARKS
YUMA           CLOUDY    57  45  64 E5        30.03S
$$

CAZ031-033-041-043-047-048-061-261400-
SOUTHERN CALIFORNIA

CITY           SKY/WX    TMP DP  RH WIND       PRES   REMARKS
DOWNTOWN L.A.  CLOUDY    64  35  34 N3        29.98S
L.A. AIRPORT   CLOUDY    62  39  42 CALM      29.98S
SAN DIEGO      CLOUDY    63  37  38 CALM      29.96F
BURBANK        CLOUDY    59  38  45 CALM      29.99S
ONTARIO        MOCLDY    62  34  35 E5        30.01R
RIVERSIDE      MOCLDY    57  36  45 E3        30.02R
PALM SPRINGS   CLOUDY    59  37  44 CALM      30.07R
EL CENTRO NAS  CLOUDY    59  42  53 S9        30.03R
IMPERIAL       CLOUDY    61  40  45 S3        30.02S
BLYTHE         CLOUDY    53  34  48 CALM      30.07F
$$

NVZ020-UTZ003-261400-
SOUTHERN NEVADA-UTAH

CITY           SKY/WX    TMP DP  RH WIND       PRES   REMARKS
LAS VEGAS      NOT AVBL
SALT LAKE CITY CLEAR     32  28  85 SE7       30.40F WCI  26
$$

NMZ009-TXZ055-261400-
NEW MEXICO-WEST TEXAS

CITY           SKY/WX    TMP DP  RH WIND       PRES   REMARKS
ALBUQUERQUE    PTCLDY    34  24  67 N10       30.36R WCI  26
EL PASO        CLOUDY    38  28  67 N9        30.29S WCI  31
$$


........................KEY........................
SKY/WX - SKY CONDITION/WEATHER
TMP    - TEMPERATURE IN FAHRENHEIT
DP     - DEW POINT IN FAHRENHEIT
RH     - RELATIVE HUMIDITY IN PERCENT
WIND   - DIRECTION AND SPEED IN MILES PER HOUR (MPH)
VRB    - VARIABLE WIND DIRECTION
PRES   - MEAN SEA LEVEL PRESSURE IN INCHES OF MERCURY
         F - FALLING PRESSURE   R - RISING PRESSURE
         S - STEADY PRESSURE
VSB    - VISIBILITY IN MILES
HX     - HEAT INDEX IN FAHRENHEIT
WCI    - WIND CHILL INDEX IN FAHRENHEIT
TC     - TEMPERATURE IN CELSIUS WHICH IS ALSO KNOWN AS
         TEMPERATURE IN CENTIGRADE
AFB    - AIR FORCE BASE
         LUKE AFB IS LUKE AIR FORCE BASE
         DAVIS-MONTHAN IS DAVIS-MONTHAN AIR FORCE BASE
NAS    - NAVAL AIR STATION
         EL CENTRO NAS IS EL CENTRO NAVAL AIR STATION
N/A    - NOT AVAILABLE


USA.gov is the U.S. government's official web portal to all federal, state and local government web resources and services.